Location: Newark
(44.9333°N, 0.5667°E)
Time: 22:21:21
(UTC+00:00)

Envisat - Visible Passes

Search period start: 11 December 2019 00:00
Search period end: 21 December 2019 00:00
Orbit: 764 x 766 km, 98.1° (Epoch: 11 December)

Date Brightness Start Highest point End Pass type
(mag) Time Alt. Az. Time Alt. Az. Time Alt. Az.
11 Dec 5.7 05:45:37 10° NE 05:49:28 21° E 05:53:16 10° SE visible
11 Dec 3.6 17:01:48 10° SE 17:06:20 34° ENE 17:10:53 10° N visible
11 Dec 4.7 18:40:49 10° SSW 18:45:20 32° W 18:49:53 10° NNW visible
12 Dec 3.3 06:46:57 10° NNE 06:52:04 77° ESE 06:57:08 10° S visible
12 Dec 3.3 18:03:21 10° S 18:08:24 69° WSW 18:13:30 10° NNW visible
13 Dec 4.8 06:10:29 10° NNE 06:15:10 35° E 06:19:48 10° SSE visible
13 Dec 3.0 17:26:43 10° SSE 17:31:40 56° ENE 17:36:39 10° N visible
13 Dec 5.6 19:07:29 10° SW 19:11:03 19° W 19:14:39 10° NW visible
14 Dec 5.9 05:34:47 10° NE 05:38:03 17° E 05:41:18 10° SE visible
14 Dec 3.8 16:50:53 10° ESE 16:55:08 28° ENE 16:59:24 10° N visible
14 Dec 4.3 18:29:14 10° SSW 18:33:59 40° W 18:38:47 10° NNW visible
15 Dec 3.7 06:35:43 10° NNE 06:40:46 61° E 06:45:47 10° S visible
15 Dec 3.0 17:52:02 10° SSE 17:57:07 86° WSW 18:02:14 10° NNW visible
15 Dec 6.2 19:35:43 10° W 19:36:53 11° W 19:38:04 10° WNW visible
16 Dec 5.2 05:59:25 10° NE 06:03:48 29° E 06:08:09 10° SSE visible
16 Dec 3.3 17:15:38 10° SE 17:20:27 45° ENE 17:25:17 10° N visible
16 Dec 5.3 18:55:37 10° SW 18:59:40 24° W 19:03:45 10° NW visible
17 Dec 6.1 05:24:12 10° ENE 05:26:38 13° E 05:29:04 10° ESE visible
17 Dec 3.9 18:17:44 10° S 18:22:39 50° W 18:27:37 10° NNW visible
18 Dec 4.1 06:24:30 10° NNE 06:29:27 48° E 06:34:21 10° S visible
18 Dec 2.9 17:40:47 10° SSE 17:45:50 77° ENE 17:50:57 10° N visible
18 Dec 6.0 19:22:53 10° WSW 19:25:27 14° W 19:28:02 10° WNW visible
19 Dec 5.5 05:48:25 10° NE 05:52:25 23° E 05:56:25 10° SE visible
19 Dec 3.5 17:04:36 10° SE 17:09:13 37° ENE 17:13:52 10° N visible
19 Dec 4.9 18:43:54 10° SSW 18:48:17 29° W 18:52:44 10° NW visible
20 Dec 6.4 05:14:28 10° ENE 05:15:12 10° E 05:15:56 10° E visible
20 Dec 3.2 06:49:52 10° NNE 06:54:59 83° ESE 07:00:05 10° SSW visible
20 Dec 3.4 18:06:19 10° S 18:11:20 63° WSW 18:16:24 10° NNW visible
